Orbital Elements at Epoch 2459000.5 (2020-May-31.0) TDB
Reference: JPL 19 (heliocentric ecliptic J2000)
Element | Value | Uncertainty (1-sigma) | Units |
e | .06104620035122351 | 4.7746e-08 | |
a | 2.425641171301209 | 1.4898e-08 | au |
q | 2.277564994377779 | 1.2371e-07 | au |
i | 5.464789932172889 | 3.9039e-06 | deg |
node | 273.6538250536754 | 5.1783e-05 | deg |
peri | 58.79792090736494 | 6.2694e-05 | deg |
M | 256.2005735356628 | 3.5032e-05 | deg |
tp | 2459398.360398367061 (2021-Jul-02.86039837) | 0.00013447 | TDB |
period | 1379.870277620003 3.78 | 1.2713e-05 3.481e-08 | d yr |
n | .2608940897117715 | 2.4036e-09 | deg/d |
Q | 2.573717348224639 | 1.5808e-08 | au |
|
| | Orbit Determination Parameters
Additional Information
|